This demonstration page uses our WeatherBlox Daily Observations layout. Learn more.

Left ArrowRight Arrow

39.95238, -75.16362

Hourly Observations for January 13, 2022

Temp ( °F °C ) Dew Point ( °F °C ) Humidity (%) Winds ( mph kmh ) Pressure ( in mb ) Visibility ( mi km ) Precip ( " mm )
12:54 am 00:54 Mostly Cloudy 33 0.6 23 -5 66 66 Calm 30.07 1018 10 16 0.00 0.00
1:54 am 01:54 Partly Cloudy 30 -1.1 23 -5 75 75 Calm 30.07 1018 10 16 0.00 0.00
2:54 am 02:54 Partly Cloudy 30 -1.1 24 -4.4 79 79 Calm 30.06 1018 10 16 0.00 0.00
3:54 am 03:54 Partly Cloudy 30 -1.1 25 -3.9 82 82 Calm 30.04 1017 10 16 0.00 0.00
4:54 am 04:54 Cloudy 30 -1.1 24 -4.4 79 79 Calm 30.04 1017 10 16 0.00 0.00
5:54 am 05:54 Mostly Cloudy 31 -0.6 24 -4.4 76 76 Calm 30.04 1017 10 16 0.00 0.00
6:54 am 06:54 Partly Cloudy 31 -0.6 25 -3.9 79 79 Calm 30.04 1017 10 16 0.00 0.00
7:54 am 07:54 Mostly Cloudy 29 -1.7 24 -4.4 82 82 ESE 3 6 30.03 1017 10 16 0.00 0.00
8:54 am 08:54 Mostly Cloudy 33 0.6 27 -2.8 78 78 NNW 3 6 30.04 1017 8 13 0.00 0.00
9:54 am 09:54 Mostly Cloudy 37 2.8 27 -2.8 67 67 Calm 30.04 1017 8 13 0.00 0.00
10:54 am 10:54 Mostly Cloudy 43 6.1 27 -2.8 53 53 Calm 30.02 1017 10 16 0.00 0.00
11:54 am 11:54 Mostly Cloudy 47 8.3 28 -2.2 48 48 Calm 29.98 1015 10 16 0.00 0.00
12:54 pm 12:54 Cloudy 49 9.4 26 -3.3 41 41 E 5 7 29.94 1014 10 16 0.00 0.00
1:54 pm 13:54 Cloudy 50 10 25 -3.9 38 38 E 3 6 29.92 1013 10 16 0.00 0.00
2:54 pm 14:54 Cloudy 50 10 25 -3.9 38 38 NNE 3 6 29.91 1013 10 16 0.00 0.00
3:54 pm 15:54 Cloudy 49 9.4 25 -3.9 39 39 Calm 29.89 1012 10 16 0.00 0.00
4:54 pm 16:54 Cloudy 47 8.3 24 -4.4 41 41 NE 3 6 29.88 1012 10 16 0.00 0.00
5:54 pm 17:54 Cloudy 42 5.6 29 -1.7 60 60 Calm 29.89 1012 10 16 0.00 0.00
6:54 pm 18:54 Cloudy 39 3.9 27 -2.8 62 62 Calm 29.89 1012 10 16 0.00 0.00
7:54 pm 19:54 Cloudy 41 5 26 -3.3 55 55 Calm 29.88 1012 10 16 0.00 0.00
8:54 pm 20:54 Cloudy 37 2.8 29 -1.7 73 73 E 5 7 29.87 1011 10 16 0.00 0.00
9:54 pm 21:54 Cloudy 40 4.4 27 -2.8 60 60 NNE 6 9 29.86 1011 10 16 0.00 0.00
10:54 pm 22:54 Cloudy 40 4.4 29 -1.7 65 65 ENE 3 6 29.85 1011 10 16 0.00 0.00
11:54 pm 23:54 Cloudy 39 3.9 28 -2.2 65 65 N 8 13 29.82 1010 10 16 0.00 0.00

Powered by AerisWeather